Wetbulb
51.32 52.56 53.43 54.30 54.56 55.52 55.24 54.80 54.49 54.34 54.01 53.58 52.67 52.41 52.13 50.56 49.98 49.21 48.74 51.00 48.82 48.61 50.03 50.70 50.02 47.84 48.93 50.91 49.57 52.46 52.32 55.25 53.05 49.35 47.31 48.04 46.06 49.56 48.28 51.28 50.41 48.90 48.10 47.11 48.31 46.08 44.35 58.33 57.61 55.00 56.46 59.01 58.95 59.86
50.20 51.36 52.54 53.95 54.59 55.07 55.12 54.66 54.21 54.00 53.93 53.50 52.73 52.61 52.21 50.72 49.98 47.84 46.20 52.22 53.03 48.51 50.10 53.71 53.56 53.78 52.24 51.22 48.93 53.19 53.94 53.63 53.86 52.37 53.06 54.12 49.53 52.49 50.53 45.72 55.61 49.27 54.21 52.74 52.84 52.73 56.99 59.38 58.20 58.90 59.01 58.17 59.14 59.64
48.94 50.49 52.01 53.30 54.17 54.55 54.92 54.54 54.13 53.80 53.61 53.37 52.84 52.63 52.27 51.14 50.30 48.86 48.03 47.74 48.15 49.02 50.53 51.08 50.52 54.05 54.83 54.83 54.95 49.96 55.56 55.90 56.51 57.39 56.39 55.96 50.21 53.61 48.66 50.25 52.97 55.75 57.22 55.63 53.64 54.96 56.44 58.70 60.06 60.14 59.94 59.56 60.22 60.94
49.26 51.02 51.86 52.80 53.81 54.11 54.42 54.34 54.15 53.70 53.37 53.16 53.08 52.46 52.46 51.63 50.68 49.40 48.33 48.26 46.53 48.57 46.33 49.07 56.23 54.49 56.77 55.86 55.23 54.21 54.21 57.65 57.39 56.87 55.12 53.19 50.76 56.75 53.22 53.86 52.90 56.35 56.07 53.38 51.63 53.85 56.62 57.53 58.70 59.74 59.47 60.07 60.04 61.24
49.84 50.25 50.59 51.56 53.13 53.83 54.23 54.08 53.87 53.63 53.30 53.12 52.86 52.71 52.63 51.58 50.84 50.79 49.92 49.47 48.24 45.93 46.75 48.38 52.18 55.26 56.07 55.56 53.80 54.64 56.34 56.24 53.02 51.80 52.37 51.44 55.89 55.14 57.50 55.25 51.90 56.22 54.34 51.84 49.22 56.00 55.91 57.12 59.16 60.42 59.27 59.27 60.48 60.66
49.65 49.18 50.14 51.47 52.39 53.63 54.26 53.92 53.71 53.43 53.30 52.90 52.75 52.57 52.08 51.23 49.58 49.04 44.42 50.79 48.18 49.69 48.33 45.84 53.87 53.47 54.37 54.68 55.25 55.61 55.60 55.06 52.92 51.02 51.25 55.78 56.14 54.98 51.40 49.77 56.89 56.97 56.23 56.87 55.88 58.09 57.45 59.19 59.68 60.55 60.15 60.34 60.71 61.18
48.91 48.84 49.24 51.19 51.89 53.20 53.94 53.68 53.33 52.97 52.69 52.49 52.02 51.60 51.21 50.22 50.64 46.40 45.15 48.46 47.29 51.06 48.42 46.51 49.50 53.79 54.31 54.95 54.91 54.59 55.86 54.81 53.22 53.68 50.94 52.17 54.29 54.31 52.35 48.60 56.05 56.12 56.46 58.34 59.21 59.09 55.70 57.54 56.68 59.27 59.91 60.84 60.13 62.01
47.25 49.17 49.50 50.94 51.92 52.75 53.34 53.18 52.82 52.45 52.32 52.01 51.18 50.74 50.46 50.03 49.32 47.86 50.17 48.00 49.67 49.10 49.66 45.44 49.06 50.35 54.52 51.48 50.85 55.55 51.77 52.22 53.00 52.95 53.46 51.63 54.73 53.86 48.49 53.71 56.10 57.33 57.65 57.31 57.87 59.80 58.65 59.29 60.09 60.10 60.67 61.15 60.38 60.42
46.17 48.41 49.38 50.24 51.85 52.67 53.26 52.92 52.61 52.07 51.81 51.22 50.80 50.26 49.47 47.05 46.05 47.99 51.06 49.70 48.47 47.78 45.17 48.04 46.52 45.55 53.52 53.07 54.38 52.87 53.88 48.20 54.47 49.45 50.45 51.49 50.05 48.02 52.27 53.01 55.41 56.75 56.29 57.15 57.76 56.92 57.99 57.96 58.62 59.60 59.99 59.45 59.65 59.41
45.76 47.52 49.07 50.08 52.22 52.91 52.91 52.68 52.21 51.20 50.63 50.39 47.14 43.25 44.70 47.91 50.57 50.11 49.66 45.85 44.46 46.56 47.97 44.52 51.46 48.90 51.77 51.21 49.99 51.59 52.28 50.72 46.98 51.11 54.25 48.34 48.89 54.78 54.88 55.99 57.22 57.25 57.22 57.82 55.48 54.85 56.29 56.51 58.60 59.01 58.72 60.02 60.30 60.44
45.54 46.63 48.68 49.81 52.41 52.84 52.56 52.03 50.82 49.32 48.23 45.41 41.25 42.70 50.67 51.51 51.92 49.02 45.55 43.97 45.23 41.93 45.66 46.85 49.19 50.04 53.91 49.13 49.48 54.27 51.13 51.75 46.32 49.49 48.85 48.50 47.68 53.32 55.23 56.43 58.82 57.91 57.39 57.80 59.19 60.06 59.39 59.61 58.34 58.65 58.67 59.69 59.46 60.58
45.35 46.02 48.21 49.42 52.23 52.49 51.79 50.40 49.08 49.42 47.91 45.57 45.46 51.62 53.10 50.40 48.14 42.92 41.98 43.54 41.99 41.84 44.83 44.94 48.27 51.44 53.66 56.85 52.21 52.56 49.75 50.64 43.51 53.27 48.47 45.41 52.32 55.36 56.02 56.68 58.07 58.27 59.25 59.05 59.82 59.07 59.34 59.53 59.34 58.90 58.62 58.28 56.36 57.72
45.15 45.72 47.87 49.23 52.35 51.87 50.60 49.15 48.57 48.46 48.06 47.83 47.51 47.45 47.12 45.92 36.42 37.60 36.01 40.27 42.00 45.90 46.53 46.17 46.01 49.80 53.63 54.37 53.41 51.14 46.33 46.32 52.94 47.05 46.19 49.53 54.51 55.70 56.89 58.91 57.78 59.04 59.20 59.00 58.79 59.37 59.42 58.84 59.25 59.01 58.45 59.50 60.21 59.28
45.05 45.41 47.47 48.74 51.96 50.82 49.61 48.65 48.41 48.20 47.46 44.41 43.70 35.88 40.49 38.55 40.78 42.21 42.27 43.34 48.04 48.98 47.27 46.53 47.71 50.26 52.51 50.33 52.87 45.85 49.52 49.82 43.96 41.82 43.88 51.08 54.76 55.58 57.47 58.73 57.81 56.57 57.33 57.86 58.03 58.55 58.04 57.72 58.20 59.17 59.08 59.86 59.44 58.09
45.09 45.52 47.84 48.90 51.06 49.93 48.73 48.77 48.53 48.15 45.07 44.49 44.97 36.92 40.76 45.17 47.98 47.66 47.66 48.81 50.16 51.04 48.49 46.81 49.88 50.67 49.28 48.39 50.23 48.64 44.58 42.09 44.85 46.06 50.59 54.05 55.86 56.28 56.40 57.21 57.08 56.74 56.48 56.47 56.85 57.20 57.16 57.91 58.88 58.59 59.20 59.37 58.44 58.00
45.24 46.17 48.44 50.87 50.58 48.93 48.31 48.07 48.06 48.69 47.81 46.21 45.30 43.47 46.70 44.76 43.99 44.90 46.11 46.92 50.72 50.60 49.85 49.65 48.17 46.69 46.37 48.28 44.54 43.44 41.78 41.04 46.92 51.72 54.29 55.62 55.70 56.67 56.84 56.48 56.56 57.33 57.58 56.63 54.68 56.38 57.16 57.55 58.52 59.39 59.12 59.24 58.02 56.81
45.42 47.04 47.75 50.29 48.91 48.34 48.21 47.46 45.81 41.57 44.24 43.55 44.46 48.14 47.48 46.30 45.30 46.69 49.00 48.34 51.96 49.12 45.13 47.16 44.28 43.96 49.68 44.67 43.43 48.95 46.50 50.33 52.80 54.05 55.64 56.98 56.36 56.72 57.40 55.74 54.77 55.81 56.10 55.51 57.34 57.89 57.89 59.40 59.34 58.07 56.60 57.32 57.34 57.11
45.59 48.20 50.19 48.72 47.66 47.29 46.80 47.60 43.49 42.01 39.48 45.13 44.36 48.16 47.58 47.53 47.72 48.42 50.72 50.98 49.90 48.26 49.28 47.67 51.04 45.96 44.22 42.26 45.83 50.77 53.17 54.77 56.52 55.17 56.09 57.44 57.94 58.15 57.19 56.58 56.62 57.27 57.21 56.54 55.90 56.61 57.97 57.95 57.25 56.90 55.93 55.85 56.58 55.92
47.54 50.18 48.67 48.32 47.51 46.56 43.04 44.11 47.01 39.37 43.16 47.38 48.33 47.45 48.39 49.80 52.02 52.38 52.03 52.77 53.29 55.30 53.82 51.81 47.18 46.30 47.77 52.71 51.90 52.86 53.77 54.28 53.87 55.25 56.31 57.89 58.79 58.20 57.31 57.45 57.43 57.54 57.08 56.24 56.28 56.11 59.17 58.10 58.10 56.54 56.08 56.00 55.37 55.58
48.72 48.60 48.70 49.32 51.02 46.20 42.71 44.46 48.71 44.69 41.87 46.83 48.57 48.62 49.95 50.55 51.97 52.67 52.23 52.30 52.96 52.94 50.56 49.67 49.72 51.68 52.37 53.42 55.47 54.79 55.45 56.32 55.27 53.74 54.51 55.89 57.45 58.19 58.08 57.56 57.29 58.18 57.17 57.11 57.01 50.06 57.82 57.43 56.37 56.24 57.08 56.20 55.04 53.74
48.23 47.95 49.54 50.53 49.11 49.09 46.48 44.70 44.68 44.27 48.03 47.09 49.29 49.41 47.44 50.69 50.53 50.34 50.08 52.25 52.27 51.60 49.27 51.79 52.23 53.51 55.81 56.48 57.50 57.24 57.01 57.99 56.94 56.92 55.64 55.23 57.18 57.13 57.83 58.34 58.63 57.67 56.25 55.32 55.33 55.88 52.04 57.46 59.16 59.40 57.22 55.91 56.15 55.08
46.99 48.81 46.92 47.58 44.95 43.72 41.70 47.44 45.17 46.92 46.00 46.58 46.07 46.76 45.97 47.88 48.67 49.20 51.10 51.05 50.22 51.38 53.42 53.64 54.53 55.31 55.64 56.17 56.67 57.43 57.34 57.19 57.32 54.35 46.92 50.37 53.80 54.64 55.54 56.65 56.70 56.00 55.97 55.50 55.48 56.35 57.27 57.50 56.43 58.70 57.95 56.76 53.40 55.66
48.20 47.56 45.60 44.15 39.21 40.98 40.86 48.41 43.11 43.69 40.43 42.24 43.22 43.53 45.81 47.91 50.26 52.83 49.68 51.59 51.92 54.66 55.40 55.44 56.20 57.28 56.95 57.61 57.28 57.06 57.83 56.89 56.40 57.89 57.35 56.19 56.62 56.32 56.07 56.47 56.62 55.47 55.10 55.92 57.14 58.09 58.01 52.01 53.34 56.26 56.85 56.29 55.86 55.34
48.55 43.38 39.36 37.80 40.51 37.88 43.20 43.26 44.58 44.81 45.09 44.78 45.59 44.51 46.55 48.75 52.49 49.22 46.70 49.37 52.95 55.00 54.94 55.67 55.94 55.39 56.17 56.65 55.54 56.74 56.99 57.54 56.48 56.85 57.25 55.60 54.86 55.50 56.56 56.72 57.37 56.95 54.81 56.84 57.47 56.70 58.32 55.10 51.46 55.15 55.64 54.16 53.58 53.71
37.40 37.07 38.44 35.33 42.66 43.15 42.40 43.57 45.17 45.37 43.38 45.47 44.69 45.18 46.67 50.49 46.11 45.79 46.17 50.12 52.68 53.67 54.18 55.33 55.59 55.32 53.02 54.53 55.64 56.81 58.17 56.50 55.49 55.01 57.61 57.03 57.66 56.61 56.49 57.66 56.69 56.07 57.46 56.85 55.61 56.47 54.43 54.95 53.92 53.60 53.46 54.98 54.72 54.31
34.85 41.31 39.91 43.74 44.85 43.91 44.66 42.60 43.91 44.21 44.91 44.11 45.24 48.42 50.57 47.10 43.44 42.48 48.48 52.39 53.77 55.22 55.70 55.49 55.34 54.84 54.86 55.32 54.00 55.66 56.60 58.98 57.56 56.56 57.41 58.63 55.99 55.72 53.43 53.54 53.98 54.56 56.74 57.01 54.80 53.03 53.92 54.91 54.16 54.91 54.59 53.96 46.42 53.69
39.54 42.39 45.88 48.99 48.12 47.83 46.38 47.78 48.57 46.29 43.91 43.03 45.49 45.46 46.20 41.20 42.21 48.13 53.94 55.79 54.97 55.72 56.76 56.78 56.09 54.86 54.03 54.62 57.36 58.48 59.21 59.31 58.44 57.73 59.29 59.87 59.97 59.13 57.07 55.99 54.50 56.31 58.59 57.53 57.17 55.72 53.98 53.75 54.07 54.27 54.21 54.90 54.59 54.24
45.24 46.78 44.25 47.73 47.96 49.27 45.72 45.70 45.11 44.70 46.13 49.33 49.82 43.47 42.95 43.50 45.74 52.46 54.30 56.23 56.74 57.83 57.78 57.65 57.40 56.25 55.65 56.34 58.29 58.52 57.22 58.37 58.17 57.79 57.61 57.77 58.29 58.49 58.72 58.51 59.15 46.70 57.78 58.79 57.96 57.91 57.45 56.93 55.94 54.97 54.26 54.45 55.13 55.70
45.92 49.08 49.45 46.34 47.25 47.27 47.00 46.22 46.40 48.62 50.87 50.79 47.36 46.65 47.81 52.14 54.48 54.57 55.55 56.94 58.15 56.41 54.44 54.48 54.68 55.43 56.04 57.78 57.79 58.10 57.36 56.78 54.46 52.09 51.97 52.64 53.45 55.74 58.26 58.26 58.41 57.50 57.86 58.82 46.99 51.84 57.29 57.19 56.62 56.36 56.15 55.86 55.99 56.42
46.03 50.09 47.14 46.23 44.63 43.88 47.28 50.20 49.16 51.25 52.11 51.88 52.90 51.64 51.71 52.54 54.29 57.05 57.12 56.96 55.71 54.51 54.79 55.46 55.57 54.73 54.35 55.52 55.19 55.55 56.94 57.10 56.56 54.82 52.84 53.02 54.22 56.70 58.59 57.50 56.83 58.02 58.96 58.55 58.15 58.11 45.65 49.95 53.43 55.32 54.26 55.48 55.25 55.02
49.72 49.13 46.88 46.66 45.79 48.75 50.54 52.52 52.85 53.41 53.16 51.84 52.87 51.30 50.67 52.79 54.44 56.47 56.47 56.62 56.47 56.46 56.31 55.13 55.57 56.32 55.85 56.06 56.28 54.93 53.30 56.80 57.56 57.74 58.00 58.05 58.16 58.38 58.96 59.15 58.22 57.28 57.40 57.10 56.63 56.36 56.23 55.71 56.31 56.09 55.42 55.20 55.33 52.38
48.27 46.59 45.72 44.65 47.10 50.62 51.55 50.22 50.98 50.72 51.13 50.70 50.06 50.78 49.90 48.90 47.22 52.23 56.07 57.08 56.24 55.56 51.89 54.47 55.44 55.35 57.91 58.82 59.36 58.63 47.75 58.21 58.39 58.96 58.95 59.04 59.22 59.57 59.59 59.51 59.49 57.70 56.76 56.41 55.96 55.25 54.36 53.76 53.99 54.36 54.82 55.41 55.88 55.82
48.00 48.49 48.56 47.34 44.61 46.12 49.06 48.43 47.84 47.85 49.42 48.59 49.32 50.42 51.17 50.72 48.86 54.02 58.35 58.98 57.48 56.95 57.12 57.70 58.26 58.35 58.56 58.74 58.90 58.70 52.36 59.26 55.79 46.67 44.91 42.19 39.91 44.97 52.94 56.30 57.40 57.97 57.39 56.43 55.98 55.62 54.79 54.52 54.29 54.03 53.99 54.20 54.53 54.97
MSLP
1017.34 1017.07 1016.83 1016.64 1016.66 1016.72 1016.91 1017.28 1017.81 1018.43 1018.96 1019.46 1019.77 1020.11 1020.42 1020.54 1020.65 1020.40 1019.08 1019.32 1018.51 1016.05 1013.86 1013.19 1012.51 1011.92 1011.06 1010.03 1008.99 1008.94 1008.54 1007.54 1006.74 1005.95 1005.63 1005.25 1005.26 1005.66 1005.65 1005.90 1005.53 1005.16 1004.60 1004.07 1004.21 1004.26 1004.93 1006.21 1006.35 1006.89 1008.12 1008.10 1008.25 1008.18
1017.17 1016.85 1016.51 1016.26 1016.25 1016.33 1016.57 1016.93 1017.39 1018.00 1018.59 1019.10 1019.47 1019.80 1020.16 1020.33 1020.46 1020.57 1019.11 1019.04 1018.83 1017.70 1014.30 1013.65 1012.97 1012.40 1012.09 1011.62 1011.24 1009.73 1009.48 1008.95 1008.35 1007.17 1006.58 1005.97 1005.74 1006.02 1005.83 1005.49 1006.52 1006.31 1005.98 1005.36 1005.97 1005.73 1006.87 1007.13 1007.68 1008.49 1008.78 1008.80 1008.85 1008.89
1016.74 1016.54 1016.25 1015.94 1015.90 1015.99 1016.13 1016.54 1017.00 1017.58 1018.25 1018.78 1019.18 1019.57 1019.88 1020.07 1020.28 1020.30 1019.35 1019.12 1018.48 1016.45 1013.70 1012.43 1010.92 1010.99 1011.32 1011.30 1011.14 1010.30 1009.07 1009.40 1008.80 1008.81 1007.15 1006.32 1006.01 1005.98 1005.25 1005.29 1005.95 1006.74 1007.07 1006.27 1006.72 1006.91 1007.18 1007.76 1008.36 1008.84 1009.11 1009.27 1009.38 1009.36
1016.45 1016.08 1015.89 1015.76 1015.62 1015.65 1015.83 1016.16 1016.59 1017.18 1017.86 1018.48 1018.91 1019.31 1019.62 1019.83 1020.04 1020.09 1019.19 1018.91 1018.58 1016.66 1013.90 1010.98 1010.91 1010.79 1010.89 1010.84 1010.85 1010.64 1010.34 1010.21 1009.69 1008.86 1007.55 1006.60 1006.12 1006.51 1005.47 1005.90 1005.98 1006.39 1007.18 1006.78 1006.89 1007.30 1007.64 1008.11 1008.63 1009.06 1009.38 1009.61 1009.64 1009.58
1016.15 1015.94 1015.62 1015.49 1015.36 1015.36 1015.54 1015.78 1016.24 1016.81 1017.52 1018.14 1018.69 1019.07 1019.39 1019.61 1019.80 1019.61 1019.13 1018.73 1018.64 1017.87 1014.31 1011.76 1010.71 1010.22 1010.31 1010.51 1010.43 1010.58 1010.42 1010.06 1009.01 1008.31 1007.63 1006.90 1006.98 1007.09 1006.63 1006.21 1005.72 1006.40 1006.57 1006.58 1007.01 1008.00 1008.14 1008.54 1009.16 1009.48 1009.54 1009.63 1009.81 1009.82
1015.82 1015.75 1015.51 1015.19 1015.08 1015.04 1015.21 1015.41 1015.94 1016.60 1017.28 1017.89 1018.50 1018.89 1019.21 1019.42 1019.65 1018.85 1017.87 1018.38 1018.58 1017.98 1015.85 1012.17 1010.43 1010.11 1009.96 1010.01 1009.93 1010.09 1010.00 1009.69 1009.12 1008.28 1007.45 1007.58 1008.25 1008.14 1006.68 1005.88 1006.67 1006.95 1007.62 1007.88 1008.32 1008.91 1009.06 1009.26 1009.59 1009.77 1009.84 1009.89 1009.90 1009.92
1015.52 1015.30 1015.21 1014.92 1014.73 1014.75 1014.89 1015.19 1015.74 1016.38 1017.12 1017.78 1018.37 1018.78 1019.15 1019.35 1018.90 1018.28 1018.14 1018.42 1018.68 1018.24 1015.87 1012.68 1010.03 1009.85 1009.86 1009.71 1009.56 1009.56 1009.93 1009.32 1009.11 1008.20 1008.07 1007.43 1007.89 1008.30 1006.92 1006.36 1006.89 1007.45 1007.96 1008.65 1009.09 1009.27 1008.95 1009.39 1009.43 1009.74 1009.79 1009.93 1010.07 1010.00
1015.10 1015.04 1014.66 1014.57 1014.43 1014.43 1014.59 1014.96 1015.52 1016.23 1017.06 1017.74 1018.33 1018.79 1019.17 1019.28 1019.12 1018.08 1017.52 1018.48 1018.52 1017.43 1015.81 1013.07 1010.15 1009.49 1009.65 1008.78 1008.81 1009.42 1009.00 1009.12 1008.89 1008.23 1008.30 1007.65 1007.96 1007.90 1007.31 1007.86 1007.97 1008.37 1008.63 1008.79 1008.93 1009.20 1009.27 1009.43 1009.47 1009.34 1009.44 1009.49 1009.58 1009.58
1014.37 1014.72 1014.37 1014.22 1014.04 1014.06 1014.26 1014.73 1015.38 1016.25 1017.12 1017.86 1018.45 1018.91 1018.92 1018.85 1017.56 1017.24 1017.59 1018.25 1018.51 1017.69 1014.93 1012.51 1010.02 1008.36 1009.14 1008.47 1008.68 1009.14 1009.01 1008.34 1008.59 1007.88 1007.65 1008.06 1007.20 1007.56 1008.27 1008.62 1008.87 1008.94 1008.85 1008.84 1009.04 1008.93 1008.93 1009.05 1009.14 1009.24 1009.23 1009.26 1009.20 1009.66
1014.00 1014.29 1014.03 1013.85 1013.64 1013.63 1013.93 1014.66 1015.50 1016.36 1017.34 1018.12 1018.59 1018.53 1016.93 1016.45 1017.38 1017.86 1017.47 1017.31 1017.31 1016.11 1014.99 1012.30 1010.11 1008.63 1008.47 1008.16 1008.19 1008.18 1008.32 1007.52 1007.50 1007.48 1008.01 1007.74 1007.03 1008.50 1008.88 1009.30 1009.50 1009.40 1009.25 1009.16 1008.93 1008.62 1008.90 1009.00 1009.33 1009.47 1009.56 1009.65 1009.72 1009.84
1013.71 1013.89 1013.67 1013.40 1013.29 1013.32 1013.74 1014.54 1015.56 1016.64 1017.60 1017.90 1017.72 1016.72 1016.30 1017.13 1016.52 1016.02 1015.58 1015.34 1014.54 1013.85 1012.49 1010.98 1009.68 1008.31 1008.55 1007.68 1007.36 1007.99 1007.43 1007.47 1007.06 1007.28 1007.50 1007.03 1007.16 1008.47 1009.57 1009.67 1009.68 1009.41 1009.32 1009.13 1009.20 1009.27 1009.28 1009.39 1009.63 1009.75 1010.21 1010.28 1010.49 1010.50
1013.52 1013.62 1013.31 1012.98 1012.93 1013.11 1013.66 1014.52 1015.39 1015.54 1016.11 1016.66 1016.75 1016.46 1016.21 1015.81 1015.05 1014.68 1013.87 1013.19 1012.57 1011.08 1010.69 1009.87 1009.15 1008.81 1008.62 1008.55 1007.65 1008.31 1007.43 1007.70 1006.99 1007.85 1007.60 1006.98 1008.18 1009.41 1009.71 1009.85 1009.86 1009.62 1009.37 1009.27 1009.39 1009.51 1009.66 1009.73 1009.93 1010.16 1010.56 1011.25 1011.41 1011.34
1013.13 1013.29 1012.75 1012.74 1012.51 1012.93 1013.72 1014.61 1015.27 1015.55 1015.99 1016.50 1016.47 1015.28 1014.50 1014.14 1013.77 1012.68 1011.51 1010.69 1010.08 1009.84 1009.91 1009.75 1009.20 1008.76 1009.15 1008.72 1007.89 1007.75 1007.53 1007.28 1007.92 1007.60 1007.13 1007.37 1009.14 1009.87 1010.31 1010.29 1010.26 1010.14 1009.94 1009.81 1009.85 1009.94 1009.98 1010.22 1010.37 1010.51 1010.74 1011.13 1011.51 1011.48
1012.72 1012.74 1012.59 1012.54 1012.42 1012.99 1013.94 1014.80 1015.37 1015.54 1015.57 1015.64 1014.62 1014.26 1013.11 1012.10 1011.20 1010.39 1010.01 1009.33 1009.17 1009.69 1009.69 1009.43 1008.73 1008.50 1008.42 1008.03 1007.49 1007.37 1007.73 1007.88 1007.53 1007.29 1007.17 1008.16 1009.53 1010.23 1010.64 1010.67 1010.66 1010.72 1010.62 1010.45 1010.42 1010.45 1010.41 1010.57 1010.82 1010.87 1010.89 1011.23 1011.34 1011.71
1012.32 1012.45 1012.53 1012.33 1012.44 1013.18 1014.22 1014.92 1015.37 1015.41 1015.29 1014.11 1013.11 1012.30 1011.11 1010.41 1009.85 1009.87 1009.72 1009.56 1009.40 1009.60 1009.43 1009.20 1008.69 1008.33 1007.97 1007.79 1007.52 1007.72 1007.86 1007.29 1007.12 1007.06 1007.75 1009.00 1010.19 1010.65 1010.96 1011.16 1011.23 1011.21 1011.20 1011.18 1011.18 1011.15 1011.17 1011.18 1011.10 1011.16 1011.38 1011.62 1011.95 1012.14
1012.18 1012.45 1012.03 1011.82 1012.68 1013.59 1014.48 1015.29 1015.64 1015.40 1014.78 1013.68 1012.61 1011.07 1010.16 1009.96 1009.64 1009.59 1009.32 1009.10 1008.98 1009.23 1009.23 1008.63 1007.79 1007.60 1007.20 1007.07 1007.32 1007.12 1006.89 1006.84 1007.12 1007.69 1008.51 1009.81 1010.60 1010.96 1011.26 1011.48 1011.55 1011.55 1011.57 1011.71 1011.78 1011.45 1011.34 1011.25 1011.22 1011.46 1011.83 1012.04 1012.37 1012.59
1012.11 1011.27 1011.69 1012.14 1013.13 1014.04 1014.74 1015.21 1015.90 1015.81 1014.55 1013.02 1011.31 1010.55 1010.06 1010.05 1009.54 1009.05 1008.82 1008.71 1008.79 1008.86 1008.06 1007.56 1007.20 1006.96 1007.36 1006.96 1006.83 1007.09 1006.94 1007.26 1007.85 1008.46 1009.09 1010.00 1010.66 1011.09 1011.40 1011.71 1011.79 1011.78 1011.91 1012.08 1011.84 1011.70 1011.59 1011.47 1011.60 1011.91 1012.10 1012.58 1012.76 1013.05
1010.94 1010.99 1011.59 1012.40 1013.40 1014.72 1015.14 1015.29 1015.28 1014.90 1013.81 1012.10 1011.05 1010.16 1010.40 1010.15 1009.53 1008.99 1008.90 1008.84 1008.68 1008.28 1007.81 1006.95 1007.18 1007.11 1006.92 1006.78 1006.85 1007.47 1007.98 1008.47 1008.49 1008.96 1009.56 1010.36 1010.81 1011.28 1011.40 1011.49 1011.72 1011.78 1011.77 1011.86 1012.01 1011.91 1011.79 1011.90 1012.04 1012.33 1012.72 1012.97 1012.90 1013.14
1010.51 1011.05 1011.80 1012.55 1013.10 1013.60 1014.25 1014.71 1014.32 1013.62 1012.50 1011.27 1010.97 1011.05 1010.74 1010.15 1009.55 1009.21 1009.04 1008.75 1008.62 1008.04 1007.64 1007.00 1006.91 1006.91 1007.05 1007.46 1007.51 1007.91 1008.40 1008.62 1009.05 1009.60 1010.01 1010.63 1011.09 1011.37 1011.42 1011.58 1011.64 1011.67 1011.75 1011.86 1011.92 1011.62 1011.70 1012.18 1012.42 1012.54 1012.56 1012.55 1011.96 1012.29
1011.16 1011.87 1012.34 1012.42 1012.52 1012.99 1013.09 1013.37 1013.67 1013.14 1012.00 1011.28 1011.40 1010.92 1010.57 1009.93 1009.45 1009.04 1008.66 1008.60 1008.16 1007.67 1007.26 1007.14 1007.30 1007.72 1007.79 1008.55 1008.64 1008.72 1008.93 1009.35 1009.44 1009.71 1009.98 1010.37 1010.87 1011.30 1011.44 1011.41 1011.38 1011.64 1011.54 1011.70 1011.73 1012.28 1011.76 1011.92 1012.49 1012.57 1011.99 1011.85 1011.96 1012.25
1011.65 1012.66 1012.95 1012.87 1013.05 1013.06 1012.98 1012.59 1012.70 1012.90 1012.10 1011.51 1011.27 1010.79 1010.49 1009.83 1009.09 1008.55 1008.40 1008.58 1007.74 1007.56 1007.72 1008.20 1008.50 1009.22 1009.40 1009.48 1009.52 1009.65 1010.00 1009.80 1009.65 1009.96 1010.18 1010.33 1010.49 1010.65 1010.93 1011.06 1011.23 1011.10 1010.95 1010.79 1010.89 1011.39 1011.81 1011.73 1011.96 1012.17 1011.82 1011.78 1011.64 1011.91
1012.45 1013.11 1013.71 1013.95 1013.65 1013.74 1013.52 1012.91 1012.75 1012.60 1012.26 1011.64 1011.44 1011.37 1010.71 1009.53 1008.82 1008.28 1008.74 1007.99 1008.12 1008.71 1008.64 1008.82 1009.35 1009.63 1009.99 1010.23 1010.42 1010.41 1010.77 1010.83 1010.81 1010.71 1010.89 1010.84 1010.48 1010.35 1010.34 1010.35 1010.56 1010.63 1010.48 1010.52 1010.69 1010.88 1011.41 1011.79 1012.01 1011.99 1011.97 1011.39 1011.72 1011.54
1013.12 1013.36 1013.68 1013.95 1014.06 1013.27 1012.92 1012.51 1012.11 1011.97 1011.78 1011.60 1011.98 1011.03 1010.18 1009.75 1009.02 1008.77 1008.19 1008.35 1009.01 1009.65 1009.55 1009.68 1010.19 1010.38 1010.36 1010.81 1010.96 1011.06 1011.17 1011.03 1010.52 1010.54 1010.63 1010.49 1010.51 1010.54 1010.42 1010.42 1010.38 1010.34 1010.45 1010.61 1010.54 1011.09 1011.29 1011.75 1012.02 1011.59 1011.26 1011.27 1011.22 1011.12
1013.54 1013.69 1013.73 1013.70 1012.89 1012.28 1011.98 1011.45 1011.53 1010.73 1010.48 1009.90 1009.13 1008.69 1008.58 1008.28 1007.90 1007.79 1008.33 1008.83 1009.39 1009.55 1009.82 1010.33 1010.15 1010.42 1010.61 1010.84 1010.43 1010.49 1010.94 1010.88 1010.66 1010.49 1010.51 1010.43 1010.05 1010.12 1010.24 1010.19 1010.38 1010.75 1011.08 1010.35 1010.71 1010.88 1011.17 1011.76 1011.98 1011.96 1011.17 1011.08 1011.05 1010.89
1013.77 1013.50 1012.98 1011.94 1011.29 1010.63 1009.95 1009.13 1008.44 1007.90 1008.06 1007.95 1007.99 1008.20 1008.23 1008.01 1007.86 1008.37 1008.80 1009.36 1009.46 1009.59 1009.89 1010.15 1010.09 1010.04 1009.99 1010.12 1010.20 1010.45 1011.09 1010.71 1010.25 1010.16 1010.19 1010.37 1010.15 1010.10 1010.16 1010.50 1010.63 1010.82 1010.75 1010.77 1010.90 1010.94 1011.37 1011.58 1011.74 1012.14 1011.16 1010.47 1010.53 1010.31
1011.61 1011.11 1010.56 1009.21 1008.73 1008.04 1007.71 1007.55 1007.43 1007.43 1007.50 1007.62 1008.05 1008.20 1007.98 1007.81 1008.20 1008.69 1009.10 1009.71 1009.93 1010.22 1010.37 1010.42 1010.29 1010.13 1010.17 1010.37 1010.23 1010.07 1010.46 1010.76 1010.53 1010.01 1010.25 1010.12 1010.39 1010.24 1010.21 1010.44 1010.47 1010.36 1010.72 1010.87 1011.10 1011.13 1010.97 1010.68 1010.77 1010.62 1010.16 1010.04 1010.23 1010.17
1010.01 1009.49 1008.93 1008.77 1008.19 1007.55 1007.57 1007.62 1007.45 1007.55 1007.62 1007.78 1007.92 1007.86 1007.87 1008.19 1008.66 1009.47 1010.04 1010.14 1010.27 1010.37 1010.60 1010.56 1010.51 1010.33 1010.25 1010.26 1010.33 1010.49 1010.55 1010.66 1010.65 1010.52 1010.45 1010.20 1010.00 1010.17 1010.10 1010.18 1010.22 1009.66 1009.70 1010.04 1010.13 1010.61 1010.56 1010.43 1010.19 1009.94 1009.63 1009.41 1009.25 1009.12
1009.73 1009.35 1008.29 1007.97 1007.70 1007.62 1007.68 1007.92 1008.10 1008.37 1008.42 1008.65 1008.33 1008.26 1008.38 1008.57 1009.29 1009.91 1010.17 1010.59 1010.72 1010.78 1010.70 1010.57 1010.70 1010.61 1010.48 1010.33 1010.34 1010.31 1010.41 1010.54 1010.58 1010.57 1010.26 1010.05 1009.91 1009.95 1009.96 1009.71 1009.67 1010.03 1010.02 1009.69 1009.46 1009.49 1009.62 1009.56 1009.29 1009.10 1009.03 1008.82 1008.66 1008.54
1009.36 1008.92 1008.03 1007.95 1008.10 1008.61 1009.09 1008.90 1009.08 1009.59 1009.84 1008.88 1008.64 1008.81 1009.20 1009.73 1010.09 1010.28 1010.64 1010.73 1010.82 1010.62 1010.36 1010.14 1010.52 1010.98 1010.63 1010.50 1010.52 1010.52 1010.44 1010.35 1010.18 1010.17 1009.70 1009.20 1008.97 1009.08 1009.66 1009.76 1009.48 1009.57 1009.44 1008.93 1009.20 1009.49 1009.17 1009.07 1008.99 1008.99 1008.53 1008.11 1007.78 1007.70
1009.56 1009.02 1008.73 1009.11 1009.22 1009.75 1010.32 1010.27 1010.29 1010.42 1010.26 1010.15 1009.96 1009.97 1010.03 1010.35 1010.87 1011.10 1010.89 1010.76 1010.61 1010.49 1010.55 1010.64 1010.66 1010.40 1010.29 1010.08 1010.13 1010.27 1010.33 1010.25 1010.11 1009.89 1009.68 1009.68 1009.44 1009.12 1008.95 1009.01 1008.71 1008.54 1008.42 1008.31 1008.15 1007.96 1008.92 1009.14 1008.85 1008.77 1008.69 1008.17 1007.75 1007.38
1010.00 1009.40 1009.75 1009.93 1010.33 1010.71 1010.90 1011.02 1010.97 1010.80 1010.61 1010.44 1010.43 1010.10 1010.43 1010.82 1010.88 1011.05 1011.00 1011.05 1010.89 1010.99 1010.84 1010.64 1010.15 1010.35 1010.42 1010.20 1009.83 1009.62 1009.47 1009.36 1009.44 1009.81 1009.84 1009.60 1009.27 1009.02 1008.76 1008.62 1008.56 1008.32 1008.15 1008.00 1007.87 1007.69 1007.65 1007.54 1007.29 1007.04 1006.88 1006.74 1006.62 1006.73
1010.66 1010.65 1010.45 1010.64 1011.05 1011.44 1011.40 1011.35 1011.17 1010.91 1010.91 1010.86 1011.07 1011.26 1011.61 1011.48 1011.34 1011.48 1011.57 1011.33 1010.99 1010.74 1010.93 1010.81 1010.43 1010.24 1010.11 1010.10 1010.11 1010.10 1010.60 1010.01 1009.93 1009.75 1009.65 1009.37 1009.15 1008.98 1008.77 1008.42 1008.15 1007.93 1007.79 1007.45 1007.28 1007.08 1006.92 1006.93 1006.75 1006.48 1006.18 1006.14 1006.18 1006.12
1011.49 1011.38 1011.32 1011.54 1011.97 1011.77 1011.79 1011.59 1011.43 1011.41 1011.19 1011.07 1011.13 1011.13 1010.98 1010.64 1010.93 1011.04 1011.26 1011.23 1011.17 1010.90 1010.61 1010.34 1010.16 1009.86 1010.01 1010.15 1009.91 1009.85 1009.85 1009.45 1009.46 1009.62 1009.74 1009.73 1009.77 1009.70 1009.57 1008.94 1008.21 1007.71 1007.34 1007.06 1006.80 1006.59 1006.38 1006.18 1005.96 1005.78 1005.60 1005.39 1005.20 1005.04
Wind_Speed
11 10 11 9 9 10 12 16 18 16 15 14 12 10 7 4 2 5 3 3 6 5 10 8 9 9 8 3 6 7 2 2 4 4 3 1 4 3 3 3 5 7 6 7 7 7 12 7 5 5 6 3 8 9
11 11 11 9 9 9 11 16 18 17 16 14 13 11 8 5 3 4 3 1 3 6 8 11 16 20 20 16 9 3 2 3 3 4 2 1 5 3 4 6 4 5 5 6 5 7 4 5 9 5 6 7 8 9
10 11 11 9 8 9 10 16 18 18 16 15 14 11 9 7 5 4 3 3 5 7 10 8 5 4 7 13 10 6 3 4 2 4 3 2 4 4 6 5 2 4 2 3 5 5 4 3 3 2 7 7 7 8
10 10 8 9 8 8 10 16 18 18 17 16 13 12 9 7 6 6 4 1 5 5 6 2 2 5 3 7 10 10 7 3 4 4 4 4 5 2 3 4 6 4 5 5 3 4 4 5 5 6 6 4 6 8
8 10 10 8 7 8 9 15 18 19 18 17 13 10 8 7 6 7 6 4 5 6 7 7 14 3 6 7 8 8 6 6 4 4 5 5 3 4 2 4 4 6 3 4 5 6 3 6 6 7 6 6 8 10
7 8 10 10 7 7 9 15 18 19 18 16 14 11 8 7 4 5 4 3 5 4 6 5 4 3 3 7 6 6 4 4 4 4 5 2 2 5 5 7 7 6 4 7 5 4 4 4 3 5 6 8 8 9
8 7 10 10 9 7 10 15 19 19 18 15 13 10 8 7 6 4 6 5 3 4 5 5 4 5 3 5 4 4 3 2 5 2 5 5 5 5 4 6 9 6 5 5 3 3 3 2 5 7 7 6 4 5
7 8 9 10 8 8 11 16 19 19 17 15 12 9 7 4 8 6 2 11 4 5 4 5 4 5 6 6 5 2 4 4 5 3 2 5 4 4 5 7 3 3 2 1 0 1 5 6 7 6 5 5 4 4
5 9 9 11 9 8 12 18 20 19 17 14 11 8 4 5 4 3 3 9 5 5 5 4 5 5 6 3 2 4 3 5 3 5 3 4 5 5 6 3 1 1 3 1 2 3 3 4 6 3 3 3 2 4
6 9 9 11 9 8 16 20 22 21 18 14 4 3 5 3 13 10 6 5 5 5 5 6 4 4 6 6 7 4 4 2 5 3 1 6 3 7 4 4 5 6 6 6 6 3 5 5 5 6 4 4 6 9
7 10 9 11 8 11 21 25 26 23 10 2 3 4 6 8 5 4 4 5 5 5 6 5 7 4 3 7 6 2 2 3 4 5 5 4 4 6 3 3 3 3 3 5 1 2 4 3 4 6 7 8 8 8
9 10 9 9 7 17 27 30 28 11 7 7 1 0 4 5 5 6 5 5 6 6 5 7 5 4 3 2 4 4 3 3 2 3 4 4 7 6 4 3 3 3 1 4 3 3 3 4 5 6 6 6 5 7
10 11 7 9 10 24 29 29 11 13 11 4 5 6 5 5 2 8 10 6 5 5 5 6 6 4 3 5 2 4 5 2 2 4 3 5 8 6 4 2 4 4 2 3 4 4 5 5 3 3 5 4 3 4
10 9 8 10 21 28 28 20 19 8 2 4 6 3 7 7 7 6 8 7 2 1 4 6 6 4 2 5 1 4 3 3 4 4 2 5 6 5 3 3 3 4 4 4 4 3 3 5 4 3 6 5 4 5
9 7 8 6 26 28 23 19 9 2 3 6 5 6 9 7 3 3 5 4 4 1 4 4 3 4 4 4 2 2 5 5 3 1 3 7 7 5 5 3 3 3 4 4 5 4 4 4 1 4 5 4 4 4
9 5 5 13 26 25 22 12 2 1 3 4 5 6 4 5 6 7 6 6 5 3 5 4 5 5 6 2 6 7 4 4 4 3 6 8 8 6 6 5 2 2 2 4 1 3 4 5 3 1 3 3 3 4
11 5 9 24 28 22 14 4 3 3 4 4 6 7 7 6 5 5 4 6 5 5 8 4 6 4 3 5 4 1 2 4 5 5 5 8 9 8 6 5 4 3 2 2 5 3 4 1 3 5 4 3 3 3
6 7 18 29 21 15 3 2 4 5 7 7 6 3 3 5 7 5 3 4 5 6 4 3 4 5 4 4 3 5 4 4 3 5 6 8 7 6 6 6 5 2 2 3 4 4 5 3 4 2 4 3 3 4
7 14 32 28 12 6 5 6 4 4 7 4 3 3 4 4 5 5 4 5 5 2 3 4 3 3 3 2 4 5 5 5 5 5 6 7 6 7 8 6 5 4 3 4 4 4 1 3 3 4 5 6 3 4
20 29 26 20 3 2 5 4 4 3 4 2 2 3 3 3 3 3 4 5 6 4 2 1 3 4 4 5 3 4 4 3 4 5 5 5 5 6 7 7 5 4 4 3 5 3 4 4 4 6 6 3 4 5
15 13 11 2 2 3 0 4 4 2 3 2 1 1 4 3 2 4 5 3 2 2 4 4 6 6 6 6 5 5 5 2 2 2 3 5 5 6 5 6 6 5 5 5 4 4 6 5 5 5 6 7 5 6
5 8 3 2 2 1 2 1 1 3 2 1 4 2 4 2 2 4 3 2 4 4 3 6 6 7 7 6 5 4 5 2 2 3 3 2 5 5 6 5 5 6 6 5 5 4 5 4 3 5 6 6 4 5
8 3 3 3 2 5 2 3 2 1 2 4 3 4 4 5 6 6 3 4 5 3 4 6 6 4 6 5 5 3 2 3 4 2 2 4 3 4 4 4 5 5 4 6 5 3 4 4 5 5 6 6 6 5
2 2 2 3 4 1 3 4 5 7 8 11 7 6 4 3 2 5 5 4 5 5 6 6 5 5 4 4 3 2 4 4 5 4 4 5 5 4 4 4 4 3 5 6 4 4 4 5 4 5 7 9 8 8
4 5 4 7 7 6 8 6 6 4 6 7 6 4 3 1 3 3 4 5 5 5 6 5 4 3 4 2 0 1 2 5 5 4 2 3 2 2 2 1 3 4 4 4 2 2 1 4 5 7 13 9 8 8
6 7 4 2 3 1 3 9 10 11 8 5 5 3 1 3 4 3 3 4 4 4 3 3 2 2 2 2 4 2 3 2 3 2 2 1 3 1 3 2 3 4 5 2 3 3 5 9 12 16 11 9 11 9
5 7 3 1 1 4 6 6 6 7 8 6 5 4 3 3 3 4 4 3 4 4 3 3 3 3 4 4 1 1 1 1 1 2 1 1 0 1 3 2 3 2 3 10 10 9 8 6 8 9 8 8 8 8
5 6 7 6 8 7 6 5 5 6 5 4 0 4 3 3 4 3 4 3 3 2 1 2 3 4 5 4 2 2 3 2 1 3 4 5 5 4 4 4 3 2 6 7 7 7 9 11 11 10 10 9 9 9
5 4 6 12 7 7 7 6 5 5 4 3 4 5 5 4 4 4 4 3 0 3 4 4 5 3 4 3 3 2 3 3 2 3 4 4 4 1 4 5 7 6 8 9 12 12 13 12 11 10 11 10 10 10
6 5 5 8 7 7 5 5 6 5 5 5 2 4 4 4 4 2 1 1 2 4 4 4 4 4 3 1 2 3 4 5 4 5 6 5 6 4 4 4 5 4 4 6 8 9 7 9 10 10 11 11 11 11
3 4 7 7 6 6 6 4 3 3 3 4 4 6 6 4 4 5 4 4 3 3 2 2 4 4 4 4 2 1 1 1 3 6 7 7 8 7 7 6 6 5 5 6 7 8 9 9 10 13 14 15 15 12
5 6 4 9 6 6 6 4 4 6 6 7 8 8 5 4 4 2 1 1 1 1 1 1 3 3 4 3 2 4 5 6 7 7 9 7 7 8 9 8 7 7 8 9 8 9 9 10 10 12 12 14 15 17
5 6 6 6 4 3 1 1 2 5 9 9 8 6 5 6 7 3 2 3 5 6 5 5 5 5 5 6 6 6 6 6 7 7 11 11 11 10 9 9 9 10 12 12 11 11 12 13 11 12 12 13 14 15
Wind_Direction
311 309 310 271 251 240 205 191 187 187 190 194 196 201 206 203 167 279 308 262 283 284 290 271 287 294 322 341 334 22 298 140 270 265 253 184 267 87 262 7 313 276 263 218 238 245 230 23 157 294 19 357 352 348
310 307 310 289 243 228 207 194 185 185 186 188 193 196 201 197 163 254 272 225 246 259 301 308 278 274 268 273 286 248 5 222 343 273 234 210 198 211 333 250 154 239 327 338 312 41 61 56 77 86 18 351 360 341
306 304 298 296 245 230 216 191 184 183 184 183 190 192 193 195 187 251 294 314 240 265 266 239 251 217 246 232 242 285 119 348 132 336 333 347 264 283 228 229 208 171 201 254 238 95 61 66 114 21 6 356 352 356
300 308 309 304 263 230 215 192 185 180 180 183 189 191 190 186 204 231 281 336 277 283 278 90 157 278 238 214 217 229 300 285 298 287 276 270 275 209 285 32 276 41 180 159 125 120 132 94 43 18 1 356 350 347
297 312 304 300 287 240 219 194 182 177 177 180 185 188 183 188 218 259 260 238 259 293 328 315 307 259 233 199 196 205 231 268 271 243 234 249 333 248 244 273 219 171 106 256 45 58 342 51 16 1 347 354 355 351
290 316 310 306 294 249 220 187 177 173 174 177 177 177 180 194 219 261 232 148 227 226 274 283 31 234 176 185 180 182 206 252 267 271 244 182 61 273 233 237 76 122 110 16 55 35 15 357 17 13 339 342 347 334
286 296 307 298 295 270 209 185 174 169 168 169 170 169 182 188 239 267 353 27 184 235 255 279 230 145 189 164 165 194 205 254 284 261 236 274 179 251 267 261 135 143 109 90 75 320 216 37 341 327 314 325 317 305
285 291 301 306 288 265 205 178 166 161 160 158 158 164 186 208 265 258 122 169 197 264 263 270 259 198 196 184 185 195 226 209 191 303 202 240 149 238 260 85 85 104 147 156 333 235 306 312 300 298 300 303 287 283
280 288 301 308 287 247 195 169 158 149 143 139 141 149 180 229 222 88 67 158 215 297 298 237 270 170 177 162 119 169 251 208 102 232 206 238 207 221 70 33 324 263 285 26 302 312 333 326 332 325 321 320 282 40
284 291 299 309 286 218 169 155 144 133 130 131 160 188 203 145 107 160 174 176 178 211 225 260 270 233 216 173 177 183 201 213 204 130 133 235 213 92 51 3 314 302 271 241 259 283 356 360 2 350 11 36 98 100
280 282 297 316 275 189 156 144 133 123 116 161 168 218 66 146 209 199 208 216 185 214 214 233 253 253 187 206 166 250 189 167 240 123 257 183 206 113 72 63 31 53 171 190 194 44 52 51 39 58 52 60 74 82
271 277 297 318 268 169 149 142 145 158 157 167 145 87 166 210 205 212 202 192 222 232 174 222 198 232 129 289 226 180 225 194 253 115 244 234 94 109 108 73 58 57 163 157 160 142 83 83 92 97 93 83 44 30
255 271 294 302 201 154 147 149 144 124 130 126 213 192 200 166 245 219 197 195 205 190 175 195 177 177 166 230 197 198 208 205 123 224 242 31 117 125 88 67 71 39 60 116 116 119 128 118 135 105 101 94 124 97
244 268 287 304 162 151 150 145 150 163 111 186 190 193 219 193 225 196 228 208 102 312 173 203 162 200 176 192 146 200 73 213 228 238 213 119 143 121 115 82 82 72 57 69 79 102 131 145 142 106 75 48 37 35
236 254 276 267 154 148 149 148 145 188 191 214 209 213 214 237 220 218 255 260 211 194 196 190 198 221 168 154 197 128 191 228 230 236 101 117 132 139 149 151 128 137 121 92 69 47 14 324 223 107 81 65 43 32
213 224 222 175 152 141 130 121 118 301 262 244 242 240 234 237 237 239 230 242 194 210 205 227 188 203 177 179 187 205 210 216 134 136 116 134 148 151 149 159 167 181 175 107 41 10 315 274 253 123 136 92 67 38
191 217 144 150 139 131 130 98 94 230 266 245 225 230 277 318 292 282 270 236 165 192 197 185 194 149 108 207 213 232 227 81 126 128 134 139 156 162 164 174 169 144 152 330 322 310 315 338 181 189 159 95 78 79
207 163 160 137 128 129 120 168 197 196 231 238 245 201 220 268 286 278 233 202 197 204 208 198 132 187 199 192 176 131 131 129 111 129 145 156 164 171 189 180 176 181 313 302 274 298 301 214 185 150 155 154 161 155
168 139 138 138 146 133 144 176 238 232 236 255 264 264 260 269 258 270 266 209 236 249 190 202 156 180 142 84 105 123 139 155 150 160 143 166 176 188 195 189 206 224 287 300 276 275 309 192 214 188 177 212 206 154
137 142 146 159 134 145 150 129 214 230 271 156 235 232 253 287 319 232 190 190 186 196 154 98 73 71 84 100 86 100 114 136 161 167 179 182 200 197 207 215 212 221 241 248 247 252 238 204 190 203 215 205 170 152
128 149 151 110 75 14 25 182 161 219 267 256 275 23 326 300 171 161 142 190 182 20 86 76 89 86 78 92 85 102 109 155 111 215 187 197 205 222 208 217 215 228 252 269 262 227 214 227 209 219 185 198 198 159
93 112 93 8 43 47 273 190 267 138 237 169 73 308 266 94 46 46 347 193 71 61 63 114 106 121 118 115 102 54 84 111 72 128 201 179 240 227 229 227 222 240 243 267 270 248 247 201 209 199 202 220 202 185
100 42 55 69 262 221 217 187 142 74 98 118 102 244 162 191 197 211 106 58 88 77 104 103 99 75 95 112 125 123 160 258 245 247 264 280 269 263 251 244 248 258 258 256 260 238 236 162 199 230 202 208 203 213
35 55 95 213 229 194 219 144 203 196 199 197 179 118 108 69 129 91 92 91 101 121 118 135 152 133 142 165 221 176 209 248 275 252 263 273 263 222 237 244 245 289 280 284 219 216 208 172 210 219 247 203 218 226
153 206 217 204 205 197 191 199 188 136 92 105 90 82 74 206 79 91 117 137 128 124 126 153 133 50 10 36 223 152 202 271 293 299 190 232 261 267 274 329 242 307 241 260 219 139 72 155 117 204 241 244 230 251
223 184 216 15 113 114 72 102 92 95 96 82 70 81 138 95 78 90 87 122 116 111 107 113 95 73 71 10 326 331 45 293 256 251 93 114 114 140 127 169 229 197 202 189 156 187 224 206 207 220 232 227 228 257
27 40 30 82 325 110 97 82 75 76 71 80 90 93 82 75 75 70 91 95 107 82 59 34 5 340 344 335 349 109 185 165 341 39 57 248 287 342 301 335 349 27 156 180 185 193 201 261 284 274 259 270 267 250
23 24 56 66 70 46 74 55 49 44 49 17 297 53 61 50 71 64 74 86 71 76 3 322 326 321 312 302 276 221 168 164 194 248 240 232 216 222 243 264 275 144 269 266 252 226 223 240 259 265 269 268 264 254
48 15 67 67 66 59 35 44 58 58 4 331 65 62 71 62 58 79 94 96 26 328 324 338 52 334 281 219 213 221 201 235 261 253 282 345 352 176 188 271 279 267 270 244 214 234 259 266 267 280 294 287 271 266
32 349 74 47 48 52 47 14 55 39 41 34 41 145 130 93 53 19 321 281 310 348 20 6 6 4 47 87 134 169 202 236 268 304 331 328 288 315 327 304 307 307 274 267 271 265 203 247 248 250 249 255 261 262
3 45 61 64 66 49 49 53 71 76 71 65 44 64 65 55 75 68 55 52 53 36 330 20 60 62 33 27 8 272 273 242 246 272 277 295 304 301 302 309 293 282 282 287 288 286 287 276 266 261 258 260 263 260
33 29 72 94 83 37 23 28 44 80 86 88 86 84 75 65 78 83 90 296 258 289 100 287 321 329 337 341 291 284 235 284 290 292 290 285 285 293 295 290 281 273 269 271 279 285 289 286 280 276 272 267 265 261
76 85 91 84 5 11 61 20 50 91 92 91 96 100 65 66 71 81 110 41 10 351 333 323 315 314 323 301 311 307 282 289 303 291 276 268 271 285 299 289 291 285 276 275 276 286 289 290 290 289 285 280 275 274